Location: Drummondville
(45.8830°N, 72.4830°W)
Time: 06:28:05
(UTC-04:00)

Envisat - Visible Passes

Search period start: 21 October 2017 00:00
Search period end: 31 October 2017 00:00
Orbit: 764 x 766 km, 98.2° (Epoch: 20 October)

Date Brightness Start Highest point End Pass type
(mag) Time Alt. Az. Time Alt. Az. Time Alt. Az.
21 Oct 4.1 19:21:35 23° ENE 19:21:46 23° ENE 19:25:43 10° NNE visible
21 Oct 4.1 21:01:48 40° NW 21:01:48 40° NW 21:05:26 10° NNW visible
22 Oct 4.8 18:44:36 11° ENE 18:45:33 12° NE 18:47:25 10° NNE visible
22 Oct 3.3 20:24:49 54° N 20:24:49 54° N 20:28:48 10° N visible
22 Oct 5.8 22:05:02 13° WNW 22:05:02 13° WNW 22:06:04 10° NW visible
23 Oct 3.7 19:47:50 35° NE 19:47:50 35° NE 19:51:47 10° N visible
23 Oct 5.0 21:28:03 24° WNW 21:28:03 24° WNW 21:30:42 10° NNW visible
24 Oct 4.4 19:10:51 19° ENE 19:10:51 19° ENE 19:14:18 10° NNE visible
24 Oct 4.1 20:51:04 40° NW 20:51:04 40° NW 20:54:23 10° NNW visible
25 Oct 3.6 20:14:04 43° NNE 20:14:04 43° NNE 20:17:38 10° N visible
25 Oct 5.7 21:54:17 14° WNW 21:54:17 14° WNW 21:55:32 10° NW visible
26 Oct 4.0 19:37:05 28° NE 19:37:05 28° NE 19:40:31 10° N visible
26 Oct 5.0 21:17:18 25° NW 21:17:18 25° NW 21:19:46 10° NNW visible
27 Oct 4.6 19:00:05 16° NE 19:00:05 16° NE 19:02:48 10° NNE visible
27 Oct 4.1 20:40:18 36° NNW 20:40:18 36° NNW 20:43:18 10° NNW visible
28 Oct 3.9 20:03:19 34° NNE 20:03:19 34° NNE 20:06:27 10° N visible
28 Oct 5.6 21:43:31 15° NW 21:43:31 15° NW 21:44:49 10° NW visible
29 Oct 4.3 19:26:18 23° NE 19:26:18 23° NE 19:29:12 10° N visible
29 Oct 4.9 21:06:32 25° NW 21:06:32 25° NW 21:08:47 10° NNW visible
30 Oct 4.8 18:49:19 13° NE 18:49:19 13° NE 18:51:07 10° NNE visible
30 Oct 4.3 20:29:32 32° N 20:29:32 32° N 20:32:12 10° NNW visible
